N2JWC Weather Reports


time (UTC)temp
F
wind
direction
speed
knots
gust
knots
rain 1hr
in
rain 24hr
in
rain mn
in
humidity
%
barometer
mb
20260906071838 71 106 0.0 0.0 0.00 0.00 0.00 99 1015.2
20260906071334 71 113 0.0 0.0 0.00 0.00 0.00 99 1015.2
20260906070830 71 113 0.0 0.0 0.00 0.00 0.00 99 1015.3
20260906070325 71 122 0.0 0.0 0.00 0.00 0.00 99 1015.4
20260906065820 71 127 0.0 0.0 0.00 0.00 0.00 99 1015.4
20260906065315 71 124 0.0 0.0 0.00 0.00 0.00 99 1015.3
20260906064811 71 111 0.0 0.0 0.00 0.00 0.00 99 1015.6
20260906064307 71 111 0.0 0.0 0.00 0.00 0.00 99 1015.5
20260906063807 71 108 0.0 0.0 0.00 0.00 0.00 99 1015.6
20260906063302 71 108 0.0 0.0 0.00 0.00 0.00 99 1015.7
20260906062758 71 108 0.0 0.0 0.00 0.00 0.00 99 1016.0
20260906062256 71 107 0.0 0.0 0.00 0.00 0.00 99 1015.8
20260906061752 71 107 0.0 0.0 0.00 0.00 0.00 99 1016.0
20260906061249 71 107 0.0 0.0 0.00 0.00 0.00 99 1015.7
20260906060743 71 107 0.0 0.0 0.00 0.00 0.00 99 1015.9
20260906060241 71 108 0.0 0.0 0.00 0.00 0.00 99 1016.0
20260906055736 71 108 0.0 0.0 0.00 0.00 0.00 99 1016.2
20260906055232 71 108 0.0 0.0 0.00 0.00 0.00 99 1016.0
20260906054727 71 109 0.0 0.0 0.00 0.00 0.00 99 1015.9
20260906054222 71 109 0.0 0.0 0.00 0.00 0.00 99 1016.0
20260906053719 72 109 0.0 0.0 0.00 0.00 0.00 99 1016.2
20260906053214 72 107 0.0 0.0 0.00 0.00 0.00 99 1016.4
20260906052708 72 107 0.0 0.0 0.00 0.00 0.00 99 1016.2
20260906052205 72 108 0.0 0.0 0.00 0.00 0.00 99 1016.4
20260906051702 72 107 0.0 0.0 0.00 0.00 0.00 99 1016.4
20260906051201 72 107 0.0 0.0 0.00 0.00 0.00 99 1016.7
20260906050657 73 118 0.0 0.0 0.00 0.00 0.00 99 1016.8
20260906050151 72 122 0.0 0.0 0.00 0.00 0.00 99 1016.8
20260906045650 72 126 0.0 0.0 0.00 0.00 0.00 99 1016.7
20260906045145 72 113 0.0 0.0 0.00 0.00 0.00 99 1016.7
20260906044641 72 113 0.0 0.0 0.00 0.00 0.00 99 1016.7
20260906044136 72 118 0.0 0.0 0.00 0.00 0.00 99 1016.9
20260906043633 72 103 0.0 0.0 0.00 0.00 0.00 99 1016.4
20260906043128 72 120 0.0 0.0 0.00 0.00 0.00 99 1016.7
20260906042627 72 110 0.0 0.0 0.00 0.00 0.00 99 1016.7
20260906042122 72 110 0.0 0.0 0.00 0.00 0.00 99 1016.8
20260906041618 73 110 0.0 0.0 0.00 0.00 0.00 99 1016.7
20260906041118 73 110 0.0 0.0 0.00 0.00 0.00 99 1016.8
20260906040614 73 109 0.0 0.0 0.00 0.00 0.00 99 1016.8
20260906040109 73 109 0.0 0.0 0.00 0.00 0.00 99 1016.7
20260906035604 73 109 0.0 0.0 0.00 0.00 0.00 99 1016.9
20260906035100 73 110 0.0 0.0 0.00 0.00 0.00 99 1017.1
20260906034600 73 110 0.0 0.0 0.00 0.00 0.00 99 1017.0
20260906034054 73 110 0.0 0.0 0.00 0.00 0.00 99 1017.2
20260906033550 73 124 0.0 0.0 0.00 0.00 0.00 99 1017.2
20260906033045 73 103 0.0 0.0 0.00 0.00 0.00 99 1017.2
20260906032542 73 103 0.0 0.0 0.00 0.00 0.00 99 1017.1
20260906032036 72 103 0.0 0.0 0.00 0.00 0.00 99 1017.1
20260906031532 72 103 0.0 0.0 0.00 0.00 0.00 99 1016.9
20260906031027 72 103 0.0 0.0 0.00 0.00 0.00 99 1016.9
20260906030526 72 103 0.0 0.0 0.00 0.00 0.00 99 1016.8
20260906030026 72 102 0.0 0.0 0.00 0.00 0.00 99 1017.0
20260906025526 72 106 0.0 0.0 0.00 0.00 0.00 99 1016.9
20260906025024 72 106 0.0 0.0 0.00 0.00 0.00 99 1016.9
20260906024520 72 106 0.0 0.0 0.00 0.00 0.00 99 1016.9
20260906024020 72 106 0.0 0.0 0.00 0.00 0.00 99 1016.9
20260906023516 72 106 0.0 0.0 0.00 0.00 0.00 99 1017.0
20260906023011 72 106 0.0 0.0 0.00 0.00 0.00 99 1016.9
20260906022506 73 105 0.0 0.0 0.00 0.00 0.00 99 1016.7
20260906022001 72 112 0.0 0.0 0.00 0.00 0.00 99 1016.7
20260906021455 73 113 0.0 0.0 0.00 0.00 0.00 99 1016.4
20260906020950 73 112 0.0 0.0 0.00 0.00 0.00 99 1016.7
20260906020445 73 119 0.0 0.0 0.00 0.00 0.00 99 1016.7
20260906015944 73 119 0.0 0.0 0.00 0.00 0.00 99 1016.6
20260906015444 73 119 0.0 0.0 0.00 0.00 0.00 99 1016.6
20260906014943 73 104 0.0 0.0 0.00 0.00 0.00 99 1016.4
20260906014438 73 104 0.0 0.0 0.00 0.00 0.00 99 1016.3
20260906013934 73 104 0.0 0.0 0.00 0.00 0.00 99 1016.4
20260906013429 73 104 0.0 0.0 0.00 0.00 0.00 99 1016.4
20260906012925 73 113 0.0 0.0 0.00 0.00 0.00 98 1016.4
20260906012425 73 129 0.0 0.0 0.00 0.00 0.00 98 1016.6
20260906011924 74 112 0.0 0.0 0.00 0.00 0.00 98 1016.2
20260906011420 74 112 0.0 0.0 0.00 0.00 0.00 97 1016.3
20260906010915 74 112 0.0 0.0 0.00 0.00 0.00 97 1016.1
20260906010411 74 112 0.0 0.0 0.00 0.00 0.00 97 1015.9
20260906005907 74 112 0.0 0.0 0.00 0.00 0.00 96 1015.8
20260906005406 75 112 0.0 0.0 0.00 0.00 0.00 96 1016.1
20260906004905 75 112 0.0 0.0 0.00 0.00 0.00 96 1015.9
20260906004405 75 112 0.0 0.0 0.00 0.00 0.00 96 1016.2
20260906003900 75 112 0.0 0.0 0.00 0.00 0.00 95 1015.8
20260906003355 75 112 0.0 0.0 0.00 0.00 0.00 95 1015.9
20260906002851 75 112 0.0 0.0 0.00 0.00 0.00 95 1016.0
20260906002350 76 112 0.0 0.0 0.00 0.00 0.00 94 1015.8
20260906001846 76 112 0.0 0.0 0.00 0.00 0.00 94 1015.8
20260906001342 76 112 0.0 0.0 0.00 0.00 0.00 93 1015.9
20260906000837 77 112 0.0 0.0 0.00 0.00 0.00 93 1015.7
20260906000337 77 118 0.0 0.0 0.00 0.00 0.00 92 1015.7
20260905235836 77 120 0.0 0.0 0.00 0.00 0.00 91 1015.5
20260905235331 77 120 0.0 0.0 0.00 0.00 0.00 90 1015.3
20260905234827 78 121 0.0 0.0 0.00 0.00 0.00 89 1015.5
20260905234322 78 113 0.0 0.0 0.00 0.00 0.00 89 1015.2
20260905233817 78 113 0.0 0.0 0.00 0.00 0.00 88 1015.2
20260905233312 79 114 0.0 0.0 0.00 0.00 0.00 87 1015.1
20260905232811 79 113 0.0 0.0 0.00 0.00 0.00 86 1015.2
20260905232307 79 113 0.0 0.0 0.00 0.00 0.00 86 1015.3
20260905231803 80 122 0.0 0.0 0.00 0.00 0.00 85 1015.1
20260905231258 80 117 0.0 0.0 0.00 0.00 0.00 84 1015.1
20260905230754 80 117 0.0 0.0 0.00 0.00 0.00 83 1015.2
20260905230252 80 117 0.0 0.0 0.00 0.00 0.00 83 1015.3
20260905225751 80 116 0.0 0.0 0.00 0.00 0.00 83 1015.3
20260905225247 80 122 0.0 0.0 0.00 0.00 0.00 83 1015.3
20260905224746 80 117 0.0 0.0 0.00 0.00 0.00 82 1015.3
20260905224242 81 117 0.0 0.0 0.00 0.00 0.00 82 1015.5
20260905223737 81 117 0.0 0.0 0.00 0.00 0.00 80 1015.5
20260905223234 82 122 0.0 0.0 0.00 0.00 0.00 79 1015.3
20260905222730 82 122 0.0 0.0 0.00 0.00 0.00 77 1015.2
20260905222228 82 124 0.0 0.0 0.00 0.00 0.00 75 1015.1
20260905221724 82 135 0.0 0.0 0.00 0.00 0.00 74 1015.0
20260905221221 82 124 0.0 0.0 0.00 0.00 0.00 77 1015.3
20260905220717 82 117 0.0 0.0 0.00 0.00 0.00 78 1015.3
20260905220213 82 123 0.0 0.0 0.00 0.00 0.00 78 1015.1
20260905215712 82 111 0.0 0.0 0.00 0.00 0.00 77 1015.3
20260905215208 82 111 0.0 0.0 0.00 0.00 0.00 77 1015.3
20260905214704 82 111 0.0 0.0 0.00 0.00 0.00 76 1015.4
20260905214159 82 111 0.0 0.0 0.00 0.00 0.00 76 1015.9
20260905213654 82 125 0.0 0.0 0.00 0.00 0.00 76 1015.9
20260905213150 82 103 0.0 0.0 0.00 0.00 0.00 75 1015.6
20260905212645 81 130 0.0 0.0 0.00 0.00 0.00 76 1015.8
20260905212144 81 114 0.0 0.0 0.00 0.00 0.00 77 1015.6
20260905211638 81 101 0.0 0.0 0.00 0.00 0.00 76 1015.7
20260905211134 81 108 0.0 0.0 0.00 0.00 0.00 76 1015.7
20260905210631 80 111 0.0 0.0 0.00 0.00 0.00 77 1016.2
20260905210125 80 111 0.0 0.0 0.00 0.00 0.00 77 1015.9
20260905205624 79 111 0.0 0.0 0.00 0.00 0.00 77 1016.0
20260905205124 79 111 0.0 0.0 0.00 0.00 0.00 79 1016.1
20260905204624 79 92 0.0 0.0 0.00 0.00 0.00 79 1016.2
20260905204120 79 94 0.0 0.0 0.00 0.00 0.00 80 1016.0
20260905203619 79 89 0.0 0.9 0.00 0.00 0.00 82 1016.2
20260905203115 78 93 0.0 0.0 0.00 0.00 0.00 81 1016.0
20260905202610 78 89 0.0 0.0 0.00 0.00 0.00 83 1016.2
20260905202105 78 110 0.0 0.0 0.00 0.00 0.00 85 1016.2
20260905201601 78 116 0.0 0.0 0.00 0.00 0.00 84 1015.9
20260905201100 78 115 0.0 0.0 0.00 0.00 0.00 84 1015.8
20260905200556 78 115 0.0 0.0 0.00 0.00 0.00 84 1016.0
20260905200050 78 115 0.0 0.0 0.00 0.00 0.00 84 1016.3
20260905195550 78 116 0.0 0.0 0.00 0.00 0.00 84 1016.4
20260905195046 78 116 0.0 0.0 0.00 0.00 0.00 83 1016.4
20260905194545 78 117 0.0 0.0 0.00 0.00 0.00 83 1016.9
20260905194044 79 124 0.0 0.0 0.00 0.00 0.00 82 1016.8
20260905193539 79 111 0.0 0.0 0.00 0.00 0.00 81 1016.7
20260905193035 80 130 0.0 0.0 0.00 0.00 0.00 79 1016.8
20260905192530 80 73 0.0 0.0 0.00 0.00 0.00 80 1016.8
20260905192026 80 120 0.0 0.0 0.00 0.00 0.00 76 1016.2
20260905191525 80 137 0.0 0.0 0.00 0.00 0.00 78 1015.6
20260905191024 81 129 0.0 0.0 0.00 0.00 0.00 79 1015.2
20260905190522 81 102 0.0 0.0 0.00 0.00 0.00 79 1015.3
20260905190022 82 94 0.0 0.0 0.00 0.00 0.00 77 1015.2
20260905185521 82 88 0.9 0.9 0.00 0.00 0.00 76 1015.2
20260905185021 83 106 0.0 0.0 0.00 0.00 0.00 74 1015.4
20260905184521 83 113 0.0 0.0 0.00 0.00 0.00 72 1015.5
20260905184020 84 79 0.0 0.0 0.00 0.00 0.00 70 1015.4
20260905183520 84 112 0.0 0.0 0.00 0.00 0.00 68 1015.7
20260905183015 86 210 1.7 1.7 0.00 0.00 0.00 66 1015.8
20260905182515 88 84 0.9 0.9 0.00 0.00 0.00 64 1016.0
20260905182009 92 295 1.7 2.6 0.00 0.00 0.00 59 1016.8
20260905181504 93 155 0.9 0.9 0.00 0.00 0.00 57 1015.8
20260905181003 93 123 0.9 0.9 0.00 0.00 0.00 61 1016.1
20260905180458 92 203 1.7 1.7 0.00 0.00 0.00 61 1016.2
20260905175953 94 99 0.0 0.0 0.00 0.00 0.00 64 1016.1
20260905175452 94 187 0.9 0.9 0.00 0.00 0.00 60 1016.2
20260905174948 94 54 0.0 0.0 0.00 0.00 0.00 58 1016.4
20260905174443 94 78 0.0 0.0 0.00 0.00 0.00 60 1016.8
20260905173939 94 139 0.0 0.0 0.00 0.00 0.00 58 1016.8
20260905173435 94 39 1.7 1.7 0.00 0.00 0.00 58 1017.0
20260905172931 94 139 2.6 2.6 0.00 0.00 0.00 54 1016.9
20260905172428 95 81 0.0 0.9 0.00 0.00 0.00 58 1017.2
20260905171925 94 145 0.0 0.0 0.00 0.00 0.00 57 1017.2
20260905171421 94 94 0.9 1.7 0.00 0.00 0.00 55 1017.1
20260905170917 96 45 0.9 0.9 0.00 0.00 0.00 54 1017.0
20260905170413 96 138 0.9 0.9 0.00 0.00 0.00 58 1017.4
20260905165912 97 206 2.6 2.6 0.00 0.00 0.00 53 1017.3
20260905165407 96 149 0.0 0.0 0.00 0.00 0.00 58 1017.2
20260905164902 96 81 0.0 0.9 0.00 0.00 0.00 58 1017.4
20260905164357 96 180 0.0 0.9 0.00 0.00 0.00 57 1017.4
20260905163852 96 92 0.9 0.9 0.00 0.00 0.00 57 1017.6
20260905163349 96 114 0.0 0.0 0.00 0.00 0.00 58 1017.6
20260905162844 95 164 0.0 0.0 0.00 0.00 0.00 62 1017.7
20260905162344 95 160 0.0 0.0 0.00 0.00 0.00 64 1017.8
20260905161839 95 104 0.0 0.0 0.00 0.00 0.00 60 1017.8
20260905161338 94 96 0.0 0.9 0.00 0.00 0.00 62 1017.8
20260905160836 93 147 0.0 0.0 0.00 0.00 0.00 70 1017.9
20260905160331 94 186 0.9 0.9 0.00 0.00 0.00 69 1017.8
20260905155825 94 133 0.0 0.0 0.00 0.00 0.00 69 1017.8
20260905155325 94 93 1.7 1.7 0.00 0.00 0.00 66 1018.2
20260905154819 94 123 1.7 1.7 0.00 0.00 0.00 67 1018.1
20260905154314 94 80 0.0 0.0 0.00 0.00 0.00 68 1017.8
20260905153810 93 107 0.0 0.0 0.00 0.00 0.00 72 1018.1
20260905153306 91 120 0.0 0.0 0.00 0.00 0.00 70 1017.8
20260905152806 91 145 0.9 1.7 0.00 0.00 0.00 72 1017.9
20260905152306 93 143 0.0 0.0 0.00 0.00 0.00 70 1018.0
20260905151800 92 132 0.0 0.0 0.00 0.00 0.00 68 1017.9
20260905151256 92 173 0.9 0.9 0.00 0.00 0.00 70 1017.9
20260905150755 91 163 0.9 0.9 0.00 0.00 0.00 71 1018.0
20260905150255 91 147 0.0 0.0 0.00 0.00 0.00 73 1018.1
20260905145753 91 155 0.0 0.9 0.00 0.00 0.00 74 1018.3
20260905145247 91 172 0.9 0.9 0.00 0.00 0.00 75 1018.2
20260905144746 91 136 0.0 0.0 0.00 0.00 0.00 73 1018.1
20260905144242 90 143 0.0 0.9 0.00 0.00 0.00 74 1017.9
20260905143741 90 142 0.0 0.0 0.00 0.00 0.00 76 1017.9
20260905143241 90 131 0.9 0.9 0.00 0.00 0.00 74 1018.0
20260905142739 89 131 0.0 0.0 0.00 0.00 0.00 75 1017.9
20260905142234 90 153 0.9 0.9 0.00 0.00 0.00 75 1018.1
20260905141730 88 125 0.0 0.0 0.00 0.00 0.00 76 1018.1
20260905141226 88 114 0.0 0.0 0.00 0.00 0.00 77 1018.1
20260905140721 87 148 0.0 0.0 0.00 0.00 0.00 77 1018.3
20260905140215 87 131 0.0 0.0 0.00 0.00 0.00 79 1018.2
20260905135715 88 133 0.0 0.0 0.00 0.00 0.00 79 1018.1
20260905135211 86 130 0.0 0.0 0.00 0.00 0.00 79 1018.3
20260905134710 86 142 0.0 0.0 0.00 0.00 0.00 83 1018.0
20260905134210 86 136 0.0 0.9 0.00 0.00 0.00 81 1018.1
20260905133704 86 129 0.0 0.0 0.00 0.00 0.00 80 1018.3
20260905133200 84 121 0.0 0.0 0.00 0.00 0.00 86 1018.1
20260905132659 83 114 0.0 0.0 0.00 0.00 0.00 86 1018.2
20260905132154 82 109 0.0 0.0 0.00 0.00 0.00 92 1018.3
20260905131650 80 108 0.0 0.0 0.00 0.00 0.00 99 1018.5
20260905131150 78 107 0.0 0.0 0.00 0.00 0.00 99 1018.3
20260905130644 77 107 0.0 0.0 0.00 0.00 0.00 99 1018.3
20260905130144 76 107 0.0 0.0 0.00 0.00 0.00 99 1018.5
20260905125638 75 107 0.0 0.0 0.00 0.00 0.00 99 1018.4
20260905125134 75 107 0.0 0.0 0.00 0.00 0.00 99 1018.3
20260905124631 75 107 0.0 0.0 0.00 0.00 0.00 99 1018.3
20260905124126 74 104 0.0 0.0 0.00 0.00 0.00 99 1018.4
20260905123622 74 103 0.0 0.0 0.00 0.00 0.00 99 1018.2
20260905123119 73 103 0.0 0.0 0.00 0.00 0.00 99 1018.4
20260905122618 73 103 0.0 0.0 0.00 0.00 0.00 99 1018.3
20260905122118 73 103 0.0 0.0 0.00 0.00 0.00 99 1018.5
20260905121614 73 103 0.0 0.0 0.00 0.00 0.00 99 1018.7
20260905121109 73 103 0.0 0.0 0.00 0.00 0.00 99 1018.4
20260905120608 73 103 0.0 0.0 0.00 0.00 0.00 99 1018.2
20260905115602 72 102 0.0 0.0 0.00 0.00 0.00 99 1018.5
20260905115057 72 102 0.0 0.0 0.00 0.00 0.00 99 1018.2
20260905114556 72 102 0.0 0.0 0.00 0.00 0.00 99 1018.2
20260905114055 72 102 0.0 0.0 0.00 0.00 0.00 99 1017.9
20260905113550 72 102 0.0 0.0 0.00 0.00 0.00 99 1017.8
20260905113045 72 102 0.0 0.0 0.00 0.00 0.00 99 1018.2
20260905112541 72 102 0.0 0.0 0.00 0.00 0.00 99 1017.9
20260905112036 72 102 0.0 0.0 0.00 0.00 0.00 99 1017.6
20260905111531 72 102 0.0 0.0 0.00 0.00 0.00 99 1017.5
20260905111030 72 100 0.0 0.0 0.00 0.00 0.00 99 1017.5
20260905110529 72 100 0.0 0.0 0.00 0.00 0.00 99 1017.6
20260905110025 72 100 0.0 0.0 0.00 0.00 0.00 99 1017.5
20260905105525 72 100 0.0 0.0 0.00 0.00 0.00 99 1017.3
20260905105024 72 100 0.0 0.0 0.00 0.00 0.00 99 1017.6
20260905104520 72 100 0.0 0.0 0.00 0.00 0.00 99 1017.6
20260905104019 72 98 0.0 0.0 0.00 0.00 0.00 99 1017.6
20260905103515 72 99 0.0 0.0 0.00 0.00 0.00 99 1017.4
20260905103011 72 99 0.0 0.0 0.00 0.00 0.00 99 1017.2
20260905102507 72 99 0.0 0.0 0.00 0.00 0.00 99 1017.1
20260905102002 72 99 0.0 0.0 0.00 0.00 0.00 99 1017.0
20260905101501 72 99 0.0 0.0 0.00 0.00 0.00 99 1017.1
20260905100959 72 99 0.0 0.0 0.00 0.00 0.00 99 1017.0
20260905100455 72 99 0.0 0.0 0.00 0.00 0.00 99 1017.1
20260905095954 72 102 0.0 0.0 0.00 0.00 0.00 99 1017.0
20260905095450 72 102 0.0 0.0 0.00 0.00 0.00 99 1017.1
20260905094945 72 102 0.0 0.0 0.00 0.00 0.00 99 1017.1
20260905094440 72 102 0.0 0.0 0.00 0.00 0.00 99 1017.4
20260905093939 72 104 0.0 0.0 0.00 0.00 0.00 99 1017.1
20260905093434 72 101 0.0 0.0 0.00 0.00 0.00 99 1016.9
20260905092930 72 102 0.0 0.0 0.00 0.00 0.00 99 1017.2
20260905092425 72 102 0.0 0.0 0.00 0.00 0.00 99 1017.0
20260905091921 72 102 0.0 0.0 0.00 0.00 0.00 99 1017.2
20260905091421 73 102 0.0 0.0 0.00 0.00 0.00 99 1016.9
20260905090920 73 102 0.0 0.0 0.00 0.00 0.00 99 1017.2
20260905090415 73 101 0.0 0.0 0.00 0.00 0.00 99 1017.3
20260905085915 73 101 0.0 0.0 0.00 0.00 0.00 99 1017.2
20260905085414 73 102 0.0 0.0 0.00 0.00 0.00 99 1017.4
20260905084910 73 101 0.0 0.0 0.00 0.00 0.00 99 1017.3
20260905084409 73 104 0.0 0.0 0.00 0.00 0.00 99 1017.2
20260905083904 73 106 0.0 0.0 0.00 0.00 0.00 99 1017.2
20260905083400 73 103 0.0 0.0 0.00 0.00 0.00 99 1017.5
20260905082855 73 103 0.0 0.0 0.00 0.00 0.00 99 1017.6
20260905082351 73 103 0.0 0.0 0.00 0.00 0.00 99 1017.6
20260905081847 73 103 0.0 0.0 0.00 0.00 0.00 99 1017.3
20260905081341 73 103 0.0 0.0 0.00 0.00 0.00 99 1017.2
20260905080841 73 103 0.0 0.0 0.00 0.00 0.00 99 1017.5
20260905080341 73 103 0.0 0.0 0.00 0.00 0.00 99 1017.5
20260905075839 73 103 0.0 0.0 0.00 0.00 0.00 99 1017.3
20260905075334 74 103 0.0 0.0 0.00 0.00 0.00 99 1017.5
20260905074833 74 103 0.0 0.0 0.00 0.00 0.00 99 1017.6
20260905074329 74 103 0.0 0.0 0.00 0.00 0.00 99 1017.8
20260905073824 74 103 0.0 0.0 0.00 0.00 0.00 99 1017.9
20260905073320 74 103 0.0 0.0 0.00 0.00 0.00 99 1017.7
20260905072820 74 103 0.0 0.0 0.00 0.00 0.00 99 1017.5
20260905072315 74 103 0.0 0.0 0.00 0.00 0.00 99 1017.8